Flag for Canada Weather past 2 weeks in St. John's, Newfoundland and Labrador, Canada

Now
43 °F

Drizzle. Low clouds.


Feels Like: 37 °F
Forecast: 47 / 56 °F
Wind: 10 mph from North

Location: St. John's

Current Time: Jul 7, 2015 at 12:18:48 AM

Latest Report: Jul 6, 2015 at 11:30 PM


Visibility: 15 mi

Pressure: 30.16 "Hg

Humidity: 100%

Dew point: 43 °F

Location of St. John'sLocation

Historic Weather in St. John's — Graph

°F

St. John's temperature yesterday

Maximum temperature yesterday: 48 °F (at 12:30 AM)
Minimum temperature yesterday: 45 °F (at 6:30 PM)
Average temperature yesterday: 46 °F

Past Weeks' High & Low Weather Summary

 TemperatureHumidityPressure
High77 °F (Jul 3, 2:30 PM)100% (Jun 22, 11:30 PM)30.20 "Hg (Jun 22, 11:30 PM)
Low39 °F (Jun 23, 7:30 PM)45% (Jun 22, 9:30 AM)29.66 "Hg (Jul 3, 11:18 PM)
Average51 °F88%29.97 "Hg
* Reported Jun 21 10:30 PM — Jul 6 10:30 PM, St. John's, Weather by CustomWeather, © 2015

Note: Actual official high and low records may vary slightly from our data, if they occured in-between our weather recording intervals... More about our weather records

Advertising

St. John's weather history for previous 24 hours

 ConditionsComfort  
Time TempWeatherWind HumidityBarometerVisibility
10:30 PM
Mon, Jul 6
45 °FLow clouds.13 mph93%30.15 "Hg15 mi
9:30 PM45 °FLow clouds.12 mph93%30.14 "Hg15 mi
8:30 PM45 °FLow clouds.15 mph93%30.12 "Hg15 mi
7:30 PM45 °FLow clouds.14 mph93%30.11 "Hg15 mi
6:30 PM45 °FLow clouds.13 mph100%30.10 "Hg8 mi
5:30 PM46 °FFog.13 mph93%30.09 "Hg4 mi
4:30 PM46 °FLow clouds.12 mph100%30.09 "Hg12 mi
4:18 PM46 °FLow clouds.12 mph100%30.09 "Hg12 mi
3:30 PM46 °FFog.14 mph100%30.08 "Hg1 mi
3:23 PM46 °FFog.15 mph100%30.07 "Hg1 mi
2:30 PM46 °FFog.16 mph100%30.06 "Hg1 mi
1:30 PM46 °FDrizzle. Fog.16 mph100%30.06 "Hg1 mi
12:30 PM46 °FLight rain. Fog.13 mph100%30.05 "Hg1 mi
11:30 AM46 °FLight rain. Fog.14 mph100%30.03 "Hg1 mi
10:30 AM46 °FLight rain. Fog.10 mph100%30.01 "Hg1 mi
9:30 AM46 °FLight rain. Fog.12 mph100%30.00 "Hg1 mi
8:30 AM46 °FLight rain. Fog.14 mph100%29.99 "Hg1 mi
7:30 AM46 °FLight rain. Fog.13 mph100%29.97 "Hg1 mi
6:30 AM46 °FLight rain. Fog.14 mph100%29.95 "Hg1 mi
5:30 AM46 °FLight rain. Fog.12 mph100%29.94 "Hg0 mi
4:30 AM46 °FFog.8 mph100%29.93 "Hg0 mi
3:30 AM46 °FFog.12 mph100%29.93 "Hg0 mi
2:30 AM46 °FFog.12 mph100%29.93 "Hg0 mi
1:30 AM48 °FLight rain. Fog.9 mph100%29.93 "Hg0 mi
12:30 AM48 °FFog.9 mph94%29.94 "Hg0 mi
Weather by CustomWeather, © 2015

See weather overviewHow to use our weather pages